| Date | Time | Temp. (oF) | Dew Point (oF) | Rel. Hum. (%) | Press. (in.) | Wind Dir. | Wind Speed (mph) | Hourly Rainfall (in.) |
|
|---|---|---|---|---|---|---|---|---|---|
| 1 | 02/14 | 00:00 | 14 | 8 | 77 | 30.11 | NNW | 0 | 0.00 |
| 2 | 02/13 | 23:00 | 15 | 7 | 71 | 30.13 | NNW | 0 | 0.00 |
| 3 | 02/13 | 22:00 | 14 | 6 | 72 | 30.14 | NNW | 0 | 0.00 |
| 4 | 02/13 | 21:00 | 14 | 5 | 67 | 30.15 | NNW | 0 | 0.00 |
| 5 | 02/13 | 20:00 | 16 | 4 | 60 | 30.15 | NNW | 0 | 0.00 |
| 6 | 02/13 | 19:00 | 17 | 3 | 54 | 30.15 | NNW | 0 | 0.00 |
| 7 | 02/13 | 18:00 | 19 | 2 | 47 | 30.14 | N | 0 | 0.00 |
| 8 | 02/13 | 17:00 | 21 | 1 | 43 | 30.12 | NNW | 7 | 0.00 |
| 9 | 02/13 | 16:00 | 21 | 1 | 43 | 30.11 | WNW | 5 | 0.00 |
| 10 | 02/13 | 15:00 | 21 | 2 | 44 | 30.13 | SSW | 8 | 0.00 |
| 11 | 02/13 | 14:00 | 19 | 0 | 43 | 30.15 | NNW | 4 | 0.00 |
| 12 | 02/13 | 13:00 | 18 | 1 | 47 | 30.19 | NNW | 6 | 0.00 |
| 13 | 02/13 | 12:00 | 16 | 1 | 51 | 30.23 | NNW | 10 | 0.00 |
| 14 | 02/13 | 11:00 | 15 | 0 | 52 | 30.25 | N | 10 | 0.00 |
| 15 | 02/13 | 10:00 | 13 | 0 | 54 | 30.26 | ESE | 11 | 0.00 |
| 16 | 02/13 | 09:00 | 11 | -1 | 56 | 30.26 | SSE | 16 | 0.00 |
| 17 | 02/13 | 08:00 | 9 | -1 | 63 | 30.26 | NNW | 7 | 0.00 |
| 18 | 02/13 | 07:00 | 8 | -3 | 60 | 30.23 | NNW | 9 | 0.00 |
| 19 | 02/13 | 06:00 | 8 | -3 | 59 | 30.21 | ENE | 8 | 0.00 |
| 20 | 02/13 | 05:00 | 8 | -3 | 58 | 30.18 | WNW | 8 | 0.00 |
| 21 | 02/13 | 04:00 | 8 | -4 | 57 | 30.16 | NNW | 13 | 0.00 |
| 22 | 02/13 | 03:00 | 9 | -3 | 56 | 30.15 | ENE | 14 | 0.00 |
| 23 | 02/13 | 02:00 | 10 | -1 | 58 | 30.14 | NNW | 15 | 0.00 |
| 24 | 02/13 | 01:00 | 10 | -2 | 57 | 30.11 | NNW | 15 | 0.00 |